Location: Brno
(49.2000°N, 16.6330°E)
Time: 00:19:30
(UTC+02:00)

CARTOSAT-1 - Visible Passes

Search period start: 02 October 2014 00:00
Search period end: 12 October 2014 00:00
Orbit: 617 x 619 km, 97.8° (Epoch: 01 October)

Date Brightness Start Highest point End Pass type
(mag) Time Alt. Az. Time Alt. Az. Time Alt. Az.
02 Oct 6.6 22:41:08 12° NNW 22:41:08 12° NNW 22:41:24 10° NNW visible
04 Oct 6.3 21:38:04 10° NNE 21:38:04 10° NNE 21:38:06 10° NNE visible
05 Oct 6.4 21:55:06 10° N 21:55:06 10° N 21:55:09 10° N visible
